Flag for United Arab Emirates Weather past 2 weeks in Sharjah, Sharjah, United Arab Emirates

Now
106 °F

Sunny.


Feels Like: 103 °F
Forecast: 83 / 103 °F
Wind: 18 mph from West

Location: Sharjah International Airport

Current Time: May 24, 2015 at 4:27:31 PM

Latest Report: May 24, 2015 at 4:00 PM


Visibility: 10 mi

Pressure: 29.65 "Hg

Humidity: 17%

Dew point: 52 °F

Location of SharjahLocation

Historic Weather in Sharjah — Graph

°F

Sharjah temperature yesterday

Maximum temperature yesterday: 106 °F (at 12:00 PM)
Minimum temperature yesterday: 77 °F (at 4:00 AM)
Average temperature yesterday: 93 °F

Past Weeks' High & Low Weather Summary

 TemperatureHumidityPressure
High109 °F (May 13, 12:00 PM)100% (May 11, 11:00 PM)29.83 "Hg (May 11, 11:00 PM)
Low73 °F (May 11, 5:00 AM)7% (May 13, 11:00 AM)29.62 "Hg (May 9, 4:00 PM)
Average91 °F37%29.71 "Hg
* Reported May 9 3:00 PM — May 24 3:00 PM, Sharjah, Weather by CustomWeather, © 2015

Note: Actual official high and low records may vary slightly from our data, if they occured in-between our weather recording intervals... More about our weather records

Advertising

Sharjah weather history for previous 24 hours

 ConditionsComfort  
Time TempWeatherWind HumidityBarometerVisibility
3:00 PM
Sun, May 24
108 °FClear.20 mph13%29.65 "Hg4 mi
2:00 PM108 °FSunny.17 mph18%29.68 "Hg10 mi
1:00 PM108 °FDuststorm.17 mph22%29.68 "Hg3 mi
12:00 PM108 °FClear.15 mph20%29.71 "Hg3 mi
11:00 AM108 °FDuststorm.15 mph20%29.71 "Hg3 mi
10:00 AM104 °FClear.16 mph23%29.71 "Hg3 mi
9:04 AM99 °FDuststorm.12 mph27%29.71 "Hg3 mi
9:00 AM99 °FClear.10 mph27%29.71 "Hg4 mi
8:00 AM95 °FSunny.9 mph13%29.71 "Hg10 mi
7:00 AM90 °FSunny.8 mph17%29.68 "Hg10 mi
6:00 AM86 °FSunny.5 mph19%29.65 "Hg10 mi
5:00 AM81 °FClear.7 mph26%29.65 "Hg10 mi
4:00 AM81 °FClear.5 mph26%29.62 "Hg10 mi
3:00 AM79 °FClear.5 mph28%29.65 "Hg10 mi
2:00 AM84 °FClear.7 mph23%29.65 "Hg10 mi
1:00 AM84 °FClear.7 mph27%29.65 "Hg10 mi
12:00 AM86 °FClear.8 mph27%29.68 "Hg10 mi
11:00 PM
Sat, May 23
86 °FClear.6 mph27%29.68 "Hg10 mi
10:00 PM88 °FClear.5 mph25%29.68 "Hg10 mi
9:00 PM90 °FClear.2 mph26%29.68 "Hg10 mi
8:00 PM93 °FClear.3 mph21%29.68 "Hg10 mi
7:00 PM99 °FClear.7 mph19%29.65 "Hg10 mi
6:00 PM100 °FSunny.8 mph20%29.65 "Hg10 mi
5:00 PM100 °FSunny.10 mph20%29.65 "Hg10 mi
4:00 PM100 °FSunny.14 mph22%29.68 "Hg10 mi
Weather by CustomWeather, © 2015

See weather overviewHow to use our weather pages